カタログに戻る

FENGYUN 1C DEB

LostPO
NORAD 38804·DEBRIS·🇨🇳 China

打ち上げ May 10, 1999 から Taiyuan Satellite Launch Center

Loading…

次のパス (今後24時間)

TLE

古いSource: Space-Track

元期: Jul 26, 2022, 06:08 UTC

1 38804U 99025EUU 22207.25558910  .00002265  00000-0  18771-2 0  9997
2 38804  97.5307   3.9120 0393995 142.2254 220.7257 13.58893283656461

AllMySatでFENGYUN 1C DEBをリアルタイム追跡

Download on the App Store